Volver al catálogo

SL-8 DEB

ActivoLEO
NORAD 21155·DEBRIS·🇷🇺 Russia

Lanzado Feb 12, 1991 desde Plesetsk Cosmodrome

Loading…

Próximos Pases (próximas 24 horas)

TLE

ActualizadoSource: Space-Track

Época: Sep 14, 2026, 05:26 UTC

1 21155U 91009S   26257.22699030  .00000013  00000-0  24069-3 0  9994
2 21155  73.9271 341.8596 0144428 277.8847 108.7320 12.30740513598769

Sigue SL-8 DEB en tiempo real con AllMySat

Download on the App Store